Погода в Сарпи

Грузия     41°31′18″N   41°33′04″E
темп.,
°C
ветер,
м/с
пор.,
м/с
влажн.,
%
обл.,
%
осадки,
мм/ч
давл.,
гПа
погр.,
м
17 мая, пн
пн1701:00+15юв44740 0.0 100885
04:00+15юв3373100 0.0 100835
07:00+15зсз1175100 0.0 100712
10:00+15юз3481100 0.0 1009247
13:00+15ююз468298 0.1 1010403
16:00+15з3491100 3.7 1011356
19:00+15ююз469050 2.2 1013365
22:00+15ю0187100 4.9 101314
18 мая, вт
вт1801:00+15вюв228581 0.0 101326
04:00+15вюв228192 0.0 101228
07:00+15юв22812 0.0 101231
10:00+17с33778 0.0 1012203
13:00+17ссв22760 0.0 1012217
16:00+19с22690 0.0 1011310
19:00+19ссв11765 0.0 101120
22:00+18вюв44635 0.0 101025
19 мая, ср
ср1901:00+18юв55605 0.0 100742
04:00+18юв785729 0.0 100565
07:00+16ююз12158499 0.1 1014704
10:00+15юз5692100 0.4 1018371
13:00+16юз338693 0.3 1019186
16:00+15зсз329284 0.3 1020270
19:00+15ссв218860 0.0 1019219
22:00+15в2288100 0.0 101837
20 мая, чт
чт2001:00+15вюв34790 0.0 101652
04:00+15юв44711 0.0 101549
07:00+16юв45680 0.0 101457
10:00+20всв23580 0.0 1012137
13:00+22ссв34570 0.0 1010283
16:00+23ссв01590 0.0 1008181
19:00+25ююв22560 0.0 100711
22:00+22юв65530 0.0 100726
21 мая, пт
пт2101:00+22юв88460 0.0 100554
04:00+21ююв77480 0.0 100644
07:00+20юв66580 0.0 100744
10:00+19юз46769 0.0 1010148
13:00+17юз34799 0.1 1011175
16:00+19зюз23690 0.1 1010123
19:00+18юз227591 0.0 101052
22:00+16вюв5584100 0.1 101187